Regional Weather Roundup
Issued by NWS Nashville, TN

Home | Current Version | Previous Version | Text Only | Print | Product List | Glossary On
Versions: 1 2 3 4 5 6 7 8 9 10 11 12 13 14 15 16 17 18 19 20 21 22 23 24 25 26 27
000
ASUS44 KOHX 201810
RWROHX
MIDDLE TENNESSEE HOURLY WEATHER ROUNDUP
NATIONAL WEATHER SERVICE NASHVILLE TN
1200 PM CST MON FEB 20 2017

NOTE: "FAIR" INDICATES FEW OR NO CLOUDS BELOW 12,000 FEET WITH
NO SIGNIFICANT WEATHER AND/OR OBSTRUCTIONS TO VISIBILITY.

* THESE REPORTS ARE NOT UNDER NWS QUALITY CONTROL AND MAY NOT
  REPORT WEATHER SUCH AS PRECIPITATION AND FOG.


TNZ005>011-023>034-057-059-062>066-078-080-201900
...NORTHERN MIDDLE TENNESSEE...

CITY           SKY/WX    TMP DP  RH WIND       PRES   REMARKS
CLARKSVILLE    CLOUDY    67  50  54 SE10      30.13F
CROSSVILLE     CLOUDY    63  43  48 VRB5      30.20F
GALLATIN       SUNNY     70  48  46 SE7       30.17F
DICKSON        MOSUNNY   68  47  46 SE7       30.13F
LIVINGSTON     CLOUDY    71  46  40 CALM      30.17F
NASHVILLE      CLOUDY    71  45  39 SE8       30.15F
PORTLAND       SUNNY     70  48  46 S9        30.15F
SMYRNA         MOSUNNY   71  50  47 SE9       30.16F
SPARTA         SUNNY     70  45  40 S5        30.16S
SPRINGFIELD    SUNNY     70  48  46 S7        30.14F
WEST NASHVILLE SUNNY     66  48  52 CALM      30.14F
$$
TNZ056-058-060-061-075>077-079-093>097-201900
...SOUTHERN MIDDLE TENNESSEE...

CITY           SKY/WX    TMP DP  RH WIND       PRES   REMARKS
COLUMBIA       SUNNY     72  54  53 S5        30.13F
FAYETTEVILLE   SUNNY     70  48  46 SE6       30.16F
MCMINNVILLE    SUNNY     72  45  37 CALM      30.16F
MURFREESBORO   MOSUNNY   71  46  40 SE3       30.14F
SHELBYVILLE    SUNNY     73  50  43 S7        30.16F
TULLAHOMA      SUNNY     70  41  35 SE9       30.17F
$$


...KEY TO REMARKS...
VSB - VISIBILITY IN MILES
WCI - WIND CHILL INDEX
HX  - HEAT INDEX





USA.gov is the U.S. government's official web portal to all federal, state and local government web resources and services.